This is the latest recevied weather packets stored in our database for station/object SV5DDT-12. If no packets are shown the sender has not sent any weather packets the latest 10 day(s).
| Time | Temp. | Humidity | Pressure | Rain* | Wind** | Luminosity | Snow |
|---|---|---|---|---|---|---|---|
| 1778110196 | 22.22° C | 55% | 1019.5 hPa | - | - | - | - |
| 1778109296 | 22.22° C | 54% | 1019.6 hPa | - | - | - | - |
| 1778108396 | 22.22° C | 54% | 1019.6 hPa | - | - | - | - |
| 1778107496 | 22.22° C | 54% | 1019.7 hPa | - | - | - | - |
| 1778106596 | 22.22° C | 54% | 1019.8 hPa | - | - | - | - |
| 1778105695 | 22.22° C | 54% | 1019.8 hPa | - | - | - | - |
| 1778104795 | 22.22° C | 54% | 1019.8 hPa | - | - | - | - |
| 1778103895 | 22.22° C | 54% | 1019.8 hPa | - | - | - | - |
| 1778102995 | 22.22° C | 54% | 1019.7 hPa | - | - | - | - |
| 1778102095 | 22.22° C | 53% | 1019.8 hPa | - | - | - | - |
| 1778101195 | 22.22° C | 53% | 1019.8 hPa | - | - | - | - |
| 1778100295 | 22.22° C | 52% | 1019.7 hPa | - | - | - | - |
| 1778099395 | 22.22° C | 52% | 1019.7 hPa | - | - | - | - |
| 1778098494 | 22.22° C | 53% | 1019.5 hPa | - | - | - | - |
| 1778097594 | 22.22° C | 52% | 1019.3 hPa | - | - | - | - |
| 1778096694 | 22.22° C | 54% | 1019.2 hPa | - | - | - | - |
| 1778095794 | 22.22° C | 54% | 1019.1 hPa | - | - | - | - |
| 1778094894 | 22.22° C | 55% | 1019 hPa | - | - | - | - |
| 1778093994 | 22.22° C | 55% | 1018.9 hPa | - | - | - | - |
| 1778093094 | 22.22° C | 57% | 1018.8 hPa | - | - | - | - |
| 1778092194 | 22.22° C | 60% | 1018.5 hPa | - | - | - | - |
| 1778091294 | 22.22° C | 57% | 1018.4 hPa | - | - | - | - |
| 1778090393 | 22.22° C | 59% | 1018.4 hPa | - | - | - | - |
| 1778089493 | 22.22° C | 58% | 1018.1 hPa | - | - | - | - |
| 1778088593 | 22.22° C | 57% | 1018 hPa | - | - | - | - |
* Rain since midnight (hover to see other rain measurements)
** Current wind speed in m/s (hover to see current wind gust speed)